Dewpoint
52 44 43 39 27 29 27 32 39 35 36 42 48 46 47 52 47 42 62 65 67 67 69 69 70 70 70 69 69 69 68 66 67 66 66 65 66 65 64 63 65 65 64 67 67 67 66 65 66
46 39 37 33 29 27 24 29 33 36 43 51 45 50 52 51 58 61 62 67 67 67 68 69 70 71 70 70 69 68 68 67 67 68 67 65 64 63 63 63 64 65 67 65 66 66 65 65 65
41 36 29 30 28 25 25 32 36 37 45 37 46 51 52 54 59 60 64 66 67 67 68 69 70 70 70 70 69 68 68 67 67 69 67 65 64 64 63 64 64 64 65 64 63 64 64 63 64
36 33 29 23 24 25 28 34 36 33 35 44 49 49 53 57 58 63 66 66 66 66 67 69 70 70 70 70 69 68 68 67 67 67 65 64 63 64 65 63 65 65 64 64 63 63 63 62 62
33 32 26 22 22 22 29 36 34 31 33 40 47 49 51 59 63 64 65 65 65 65 67 68 69 70 70 70 69 68 68 67 65 66 65 64 63 64 65 66 65 64 64 63 63 62 61 61 62
30 30 24 23 22 30 34 33 30 30 39 47 50 50 51 59 61 63 64 64 65 65 66 67 67 68 69 69 68 68 68 67 65 64 65 65 64 65 65 65 65 64 63 63 62 61 61 61 61
29 29 25 25 19 29 31 31 28 33 42 42 51 49 55 56 60 63 64 64 65 65 65 65 67 67 66 67 67 67 67 67 67 66 65 66 67 67 66 66 66 64 63 63 63 62 61 60 60
32 29 26 29 19 25 25 29 28 31 27 49 52 50 54 57 61 63 64 63 64 63 63 64 65 66 66 65 64 65 66 66 66 65 64 63 65 65 65 64 66 65 64 63 63 62 61 61 60
31 27 26 25 20 21 25 24 26 34 37 44 48 52 55 59 61 62 62 62 63 62 62 62 63 64 64 64 62 63 63 63 63 62 60 59 60 61 62 63 65 65 64 63 63 61 60 60 59
28 27 26 26 23 23 25 25 27 34 45 46 48 52 58 60 60 60 60 59 60 60 61 61 62 63 63 64 62 62 61 61 60 60 58 59 58 58 59 60 61 62 63 63 62 61 60 58 56
29 26 27 24 24 26 25 25 28 33 37 45 47 55 58 60 60 60 60 60 60 60 60 61 61 61 62 62 61 61 60 59 59 58 58 58 58 57 57 56 56 56 57 57 56 56 56 55 55
24 25 25 27 29 27 25 25 31 31 29 40 52 57 58 60 60 60 60 60 59 59 59 60 61 61 61 62 61 60 60 59 58 58 58 57 57 56 56 56 55 55 56 56 55 55 55 54 54
27 24 24 26 28 27 25 25 27 27 32 52 55 57 57 59 60 60 61 61 60 59 59 60 60 61 61 61 61 60 60 60 59 58 58 58 57 56 56 56 56 56 56 56 55 54 54 54 54
30 28 25 24 26 26 24 23 24 25 49 53 55 56 56 57 57 59 60 60 60 60 60 60 60 61 61 60 60 61 61 61 60 59 58 57 56 56 57 56 56 56 56 55 55 54 54 54 53
33 26 23 23 24 24 23 22 21 26 52 52 53 55 56 56 56 58 60 60 61 61 61 60 60 61 60 60 60 61 60 61 61 60 58 58 57 57 57 56 56 56 56 54 54 53 53 53 53
33 24 21 23 24 25 22 21 22 34 51 51 52 52 53 54 55 56 58 60 61 61 61 61 60 60 60 60 61 62 61 61 60 60 59 58 58 57 56 56 56 56 55 55 54 53 53 52 52
34 21 19 21 24 22 20 20 21 28 49 50 51 52 53 54 54 55 56 58 60 61 61 61 61 61 60 60 61 62 62 61 61 61 60 59 59 57 56 55 55 55 55 54 55 53 52 52 53
34 20 19 20 21 20 19 16 18 24 41 46 49 49 51 52 53 54 54 56 58 60 61 61 61 61 61 61 61 63 63 62 62 61 61 60 60 59 58 57 56 55 55 56 55 53 55 54 53
25 20 18 19 22 18 19 18 16 20 22 30 33 36 43 48 52 53 53 54 56 58 60 61 61 61 61 60 61 62 62 62 63 63 62 61 61 61 60 60 59 58 57 57 56 55 54 54 53
33 25 18 21 23 19 18 18 16 17 18 20 26 25 31 35 37 44 48 51 53 56 60 61 61 61 61 61 60 61 62 62 63 63 63 63 62 62 62 61 61 60 59 58 57 55 55 54 54
34 27 21 19 21 19 17 15 16 17 18 18 18 18 18 24 32 34 42 49 52 55 58 60 61 61 61 61 60 60 61 61 61 61 61 62 62 62 61 61 61 60 60 59 58 57 56 55 55
32 31 23 21 19 19 15 13 12 16 17 18 17 19 17 17 28 30 36 44 50 53 56 60 61 61 61 61 60 58 58 59 60 61 61 62 62 62 62 61 61 60 60 59 58 58 57 56 54
34 25 26 26 19 14 13 7 10 13 15 17 18 18 20 18 23 26 30 35 35 40 44 54 59 60 61 61 61 59 58 59 60 60 60 60 60 61 60 60 59 58 57 56 56 55 54 54 53
27 31 27 26 21 13 16 11 10 8 12 15 18 18 19 23 24 28 34 40 43 42 39 37 53 60 61 61 60 60 59 58 58 59 59 58 54 51 51 50 50 49 49 48 47 47 46 46 48
32 32 25 24 21 14 15 8 13 5 12 13 15 18 20 28 33 37 43 45 44 42 40 38 41 55 61 61 60 61 60 58 58 58 57 53 49 47 45 45 45 43 42 43 43 43 42 42 41
33 31 22 17 16 14 15 10 11 13 12 20 20 18 26 33 37 40 44 45 45 44 43 41 45 50 59 61 61 59 59 58 56 55 52 47 44 43 42 40 39 38 38 38 39 39 39 37 37
31 29 27 17 16 15 12 13 11 16 19 27 26 28 28 32 38 42 45 45 45 46 46 46 48 51 57 59 58 54 53 51 47 44 43 41 40 38 37 36 35 35 35 36 37 36 34 33 34
28 28 18 18 15 6 4 7 11 12 15 24 29 29 31 36 39 41 43 44 45 45 45 45 46 49 49 49 49 48 45 43 41 40 38 37 36 35 34 33 33 32 33 33 34 33 31 30 31
29 23 19 17 19 13 9 8 11 9 12 18 26 30 32 36 39 40 40 41 43 42 42 42 42 42 42 43 40 40 39 37 36 36 35 34 34 33 32 31 31 30 29 30 31 31 29 28 28
25 23 20 18 13 14 17 10 11 11 13 22 28 33 36 37 38 39 39 39 40 40 40 40 38 38 38 38 37 36 35 34 33 33 32 32 31 31 30 29 29 28 27 28 29 27 28 27 27
Lifted_Index
9 9 9 8 9 8 6 6 5 5 5 5 5 4 3 3 2 1 -0 -1 -2 -3 -4 -5 -5 -6 -5 -5 -4 -3 -2 -1 -1 -1 -0 0 1 1 2 2 1 1 1 0 0 1 1 2 2
9 9 8 8 8 7 6 5 5 5 5 5 4 4 3 2 1 0 -0 -1 -2 -3 -4 -5 -5 -5 -5 -4 -3 -2 -2 -1 -1 -1 -1 0 1 2 2 2 1 1 1 1 1 1 2 2 2
9 9 9 9 8 8 6 5 5 5 5 5 4 3 2 1 0 0 -0 -1 -2 -3 -4 -4 -5 -5 -5 -4 -3 -2 -2 -1 -1 -1 -1 0 1 2 2 2 2 1 1 2 2 2 3 3 3
8 8 9 9 8 8 7 6 5 5 6 5 4 3 1 1 0 0 -0 -1 -1 -2 -3 -4 -4 -4 -4 -3 -3 -2 -1 -1 -1 -1 -0 1 1 1 1 2 2 2 2 2 3 3 4 4 4
8 8 8 9 8 7 7 6 6 6 6 5 4 2 1 1 1 1 1 0 -0 -1 -2 -2 -3 -3 -3 -3 -2 -2 -1 -1 -0 -0 0 1 1 1 1 1 2 2 2 3 3 4 4 5 5
7 7 8 8 8 7 7 6 7 7 6 5 3 2 1 1 1 1 1 1 1 0 -1 -1 -2 -2 -2 -2 -2 -1 -1 -1 -0 0 1 1 1 1 1 1 1 2 3 3 3 4 5 5 5
6 7 8 8 7 7 6 7 7 7 6 5 3 2 1 0 1 1 2 2 2 1 1 -0 -1 -2 -1 -1 -1 -1 -1 -1 0 1 1 1 1 1 1 1 1 2 3 3 3 4 5 5 5
6 6 7 8 7 7 7 7 7 7 6 4 3 2 1 0 1 1 2 3 3 2 1 0 -1 -1 -1 -0 0 0 0 0 1 2 2 2 2 1 1 1 1 2 2 3 3 4 5 5 6
6 6 7 8 7 7 7 7 7 7 6 4 3 2 1 0 0 1 2 3 3 3 2 1 -0 -1 -0 1 1 1 2 2 3 3 4 4 3 3 3 2 2 2 3 3 4 4 5 6 6
6 6 7 7 7 7 7 7 7 7 6 4 3 2 1 -0 0 1 2 3 3 4 3 2 0 -0 0 1 2 2 3 4 4 4 5 5 4 4 4 4 4 4 4 4 4 5 5 6 6
6 6 6 7 7 7 7 7 7 7 6 5 3 1 0 -0 -0 0 1 2 3 4 4 3 1 0 0 1 2 3 4 4 5 5 5 5 5 5 6 5 5 5 5 5 5 6 6 6 6
6 5 6 7 7 7 7 7 7 7 7 5 3 1 -0 -0 -0 -0 0 1 2 4 4 4 3 1 1 1 2 3 4 5 5 5 5 5 5 5 6 6 5 5 5 5 6 6 6 6 6
5 5 6 7 7 7 6 7 7 7 6 5 2 1 -0 -0 -1 -1 -0 0 1 3 4 4 3 2 2 2 2 2 3 4 4 4 4 5 5 5 5 5 5 5 5 5 5 5 5 5 6
5 5 6 6 6 6 6 7 7 7 6 4 2 1 -0 -0 -1 -1 -1 -1 0 1 2 3 3 2 2 2 2 2 3 3 3 3 4 4 4 4 4 4 4 4 4 4 4 5 5 5 5
5 5 6 6 6 6 6 6 7 7 5 3 2 1 0 -0 -1 -1 -1 -1 -0 0 1 1 2 2 2 2 2 2 2 2 2 2 3 3 4 4 4 4 3 4 4 4 4 4 4 4 5
4 4 5 5 6 6 6 6 7 7 5 3 3 2 1 0 -0 -0 -1 -1 -1 -0 -0 0 1 1 1 2 2 2 2 2 2 2 2 2 3 3 3 3 3 3 3 3 3 4 4 4 4
3 3 3 4 6 6 6 6 7 7 5 4 3 2 2 1 0 0 -0 -0 -1 -0 -0 0 0 1 1 1 1 2 2 2 2 2 2 2 2 2 3 3 3 3 3 3 3 4 4 4 4
2 2 3 3 5 6 6 6 6 7 6 5 4 3 2 2 1 1 0 0 -0 -0 -0 -0 0 0 0 1 1 1 1 1 1 2 2 2 2 2 3 3 3 3 3 3 3 4 4 4 3
2 2 2 3 5 6 6 6 6 7 7 7 5 4 3 3 3 2 1 1 1 0 0 0 -0 -0 -0 0 0 1 1 1 1 1 2 2 2 2 2 3 3 3 3 3 3 3 3 3 4
2 2 2 3 5 5 6 6 6 7 7 7 7 6 5 5 4 3 2 1 1 1 1 0 0 -0 -0 -0 0 1 1 1 1 1 2 2 2 2 2 2 2 2 2 3 3 3 3 3 4
2 2 2 3 4 5 5 5 6 7 7 7 8 7 7 7 6 5 3 2 2 1 1 1 0 0 -0 -0 -0 0 1 2 2 2 2 2 2 2 2 2 2 2 2 2 3 3 4 4 4
2 2 2 3 3 3 4 4 6 7 7 7 8 8 8 8 8 7 5 4 3 2 2 1 1 0 0 -0 0 0 1 2 2 2 2 2 2 2 2 2 2 2 3 3 4 4 4 5 6
3 3 4 4 4 3 3 4 5 6 7 7 7 8 8 8 8 8 7 6 4 3 2 2 1 1 0 0 0 0 1 2 3 3 3 3 3 3 3 3 3 3 4 4 5 6 6 7 8
3 3 4 4 4 3 4 5 5 6 7 7 7 7 7 8 8 9 9 8 6 4 3 2 2 1 1 0 0 0 1 2 3 3 3 3 3 3 3 4 4 5 6 7 8 8 9 10 10
3 3 2 2 2 3 4 5 6 7 7 7 7 7 7 7 8 8 9 9 8 7 5 4 3 2 1 1 0 1 1 2 3 3 4 4 4 4 4 5 6 7 8 10 11 12 12 13 13
3 2 1 1 1 3 5 6 7 7 7 7 7 7 7 7 7 8 9 9 9 9 8 8 7 5 3 1 0 1 1 2 2 3 4 4 5 5 6 7 8 10 11 12 13 13 14 15 15
3 3 2 2 2 3 4 6 7 8 7 7 6 6 6 6 7 8 9 9 9 10 10 10 9 7 4 2 1 1 1 2 3 3 4 5 5 6 7 9 11 12 13 14 14 15 15 16 16
3 3 4 4 3 2 3 5 7 7 7 6 6 6 5 6 7 8 9 9 9 9 10 9 9 7 5 3 1 1 2 3 4 4 5 5 6 8 10 12 13 14 14 15 16 16 16 16 16
4 4 4 4 4 3 3 5 6 7 6 6 5 5 5 5 6 8 9 9 9 9 9 8 7 6 4 3 2 2 3 4 4 6 6 7 9 11 12 13 13 14 15 16 16 16 16 16 16
4 4 4 4 4 5 5 5 6 6 6 6 5 5 5 5 7 8 9 9 9 9 8 7 6 5 4 2 2 3 3 4 5 6 8 9 11 12 13 13 14 15 16 16 16 16 16 16 15